Location: Pilipovskiye Korichintsy
(49.1833°N, 27.4667°E)
Time: 12:31:30
(UTC+00:00)

Cosmos 1743 - Pass Details

Date: 14 July 2020
Orbit: 511 x 526 km, 82.6° (Epoch: 07 August)

Event Time Altitude Azimuth Distance (km) Brightness Sun altitude
Exits shadow 01:27:33 - 196° (SSW) 1,999 5.1 -7.4°
Reaches altitude 10° 01:28:11 10° 197° (SSW) 1,736 4.8 -7.3°
Maximum altitude 01:31:58 68° 281° (W) 562 2.7 -6.9°
Drops below altitude 10° 01:35:49 10° 5° (N) 1,759 6.2 -6.4°
Sets 01:37:59 0° 8° (N) 2,654 7.2 -6.2°
